Terminal Aerodrome Forecast
Issued by NWS

Home | Current Version | Previous Version | Text Only | Print | Product List | Glossary On
Versions: 1 2 3 4 5 6 7 8 9 10 11 12 13 14 15 16 17
833
FTUS46 KMTR 261120
TAFSNS
TAF
KSNS 261120Z 2612/2712 33004KT P6SM SKC
     FM261300 29009KT P6SM OVC010
     FM261600 29014G19KT P6SM FEW015
     FM270300 29014KT P6SM BKN012
     FM270600 29005KT P6SM OVC010=

USA.gov is the U.S. government's official web portal to all federal, state and local government web resources and services.